Simultaneous Nadir Overpasses (SNOs) Predictions

Prediction of SNOs between NOAA-19 and TERRA Satellite Orbit:

Table of predicted SNOs for the next 14.0 days since TLE Epoch: 4/6/2024
Index Date (NOAA-19) Time (NOAA-19) Lat,Lon (NOAA-19) SZA (NOAA-19 ) Date (TERRA) Time (TERRA) Lat,Lon (TERRA) SZA (TERRA ) Distance(km) Time Diff (sec)
1 04/06/2024 23:28:02 -79.87, 27.75 106.54 04/06/2024 23:28:13 -79.87, 27.71 106.54 0.81 11
2 04/09/2024 02:27:12 -79.76, -18.09 107.48 04/09/2024 02:28:22 -79.76, -18.13 107.47 0.83 70
3 04/09/2024 03:18:09 79.89, 150.54 72.72 04/09/2024 03:17:40 79.89, 150.50 72.71 0.86 29
4 04/11/2024 06:17:19 79.77, 104.49 71.75 04/11/2024 06:17:49 79.78, 104.57 71.77 1.72 30
5 04/11/2024 07:08:11 -79.91, -86.72 108.04 04/11/2024 07:07:07 -79.90, -86.86 108.08 3.02 64
6 04/13/2024 10:07:21 -79.80,-132.65 108.98 04/13/2024 10:07:15 -79.81,-132.59 108.97 1.47 6
7 04/15/2024 13:06:30 -79.71,-178.30 109.87 04/15/2024 13:07:23 -79.71,-178.37 109.86 1.62 53
8 04/15/2024 13:57:26 79.82, -9.89 70.30 04/15/2024 13:56:41 79.83, -9.78 70.31 2.63 45
9 04/17/2024 16:56:35 79.71, -55.77 69.39 04/17/2024 16:56:49 79.72, -55.66 69.41 2.33 14
10 04/19/2024 19:55:43 79.62,-101.38 68.53 04/19/2024 19:56:56 79.63,-101.34 68.56 1.25 73



Historial Predications of SNOs between NOAA-19 and TERRA
